�������l�o���
Date,Time,MP-1(��Sv/h),MP-2(��Sv/h),MP-3(��Sv/h),MP-4(��Sv/h),MP-5(��Sv/h),MP-6(��Sv/h),MP-7(��Sv/h),MP-8(��Sv/h),����,����(m/s),���J
2021/01/27,00:00,0.670,0.955,0.609,1.203,0.850,0.380,0.672,0.631,��쓌,4.1,�L
2021/01/27,00:10,0.671,0.953,0.608,1.201,0.851,0.379,0.669,0.633,��,5.5,�L
2021/01/27,00:20,0.672,0.955,0.608,1.201,0.847,0.380,0.670,0.632,��,5.1,�L
2021/01/27,00:30,0.671,0.955,0.609,1.203,0.849,0.381,0.671,0.632,��,4.3,�L
2021/01/27,00:40,0.672,0.955,0.609,1.203,0.850,0.381,0.673,0.631,��쓌,3.9,�L
2021/01/27,00:50,0.670,0.952,0.609,1.203,0.849,0.379,0.670,0.633,��쓌,4.2,�L
2021/01/27,01:00,0.669,0.953,0.609,1.201,0.849,0.381,0.670,0.632,��,5.0,�L
2021/01/27,01:10,0.670,0.954,0.610,1.203,0.848,0.381,0.671,0.632,��,5.0,�L
2021/01/27,01:20,0.670,0.953,0.609,1.204,0.847,0.381,0.673,0.631,��,5.5,�L
2021/01/27,01:30,0.668,0.951,0.608,1.201,0.845,0.381,0.670,0.631,��,5.9,�L
2021/01/27,01:40,0.667,0.952,0.609,1.199,0.845,0.380,0.670,0.632,��,5.9,�L
2021/01/27,01:50,0.666,0.949,0.609,1.201,0.844,0.381,0.667,0.631,��쐼,7.1,�L
2021/01/27,02:00,0.666,0.947,0.606,1.202,0.843,0.380,0.669,0.630,��쐼,7.2,�L
2021/01/27,02:10,0.667,0.947,0.605,1.197,0.842,0.382,0.669,0.630,��,6.0,�L
2021/01/27,02:20,0.665,0.944,0.604,1.199,0.841,0.380,0.669,0.629,��,6.2,��
2021/01/27,02:30,0.666,0.941,0.606,1.198,0.842,0.381,0.669,0.629,��,6.1,��
2021/01/27,02:40,0.666,0.944,0.608,1.199,0.842,0.381,0.668,0.631,��,7.3,�L
2021/01/27,02:50,0.665,0.946,0.606,1.196,0.838,0.379,0.667,0.629,��,7.3,�L
2021/01/27,03:00,0.664,0.947,0.606,1.198,0.840,0.379,0.667,0.631,��,9.2,�L
2021/01/27,03:10,0.666,0.945,0.605,1.196,0.840,0.379,0.668,0.630,��,10.2,�L
2021/01/27,03:20,0.666,0.944,0.605,1.196,0.840,0.379,0.669,0.629,��,11.0,�L
2021/01/27,03:30,0.665,0.944,0.605,1.197,0.841,0.379,0.668,0.630,��,11.0,�L
2021/01/27,03:40,0.666,0.946,0.606,1.199,0.840,0.379,0.670,0.630,��,8.6,�L
2021/01/27,03:50,0.666,0.943,0.606,1.197,0.839,0.380,0.668,0.631,��,8.6,�L
2021/01/27,04:00,0.667,0.941,0.605,1.199,0.842,0.379,0.670,0.631,��,8.9,�L
2021/01/27,04:10,0.668,0.942,0.606,1.197,0.839,0.380,0.670,0.630,��,8.8,�L
2021/01/27,04:20,0.665,0.943,0.607,1.196,0.840,0.380,0.669,0.631,��,7.7,�L
2021/01/27,04:30,0.666,0.942,0.606,1.194,0.840,0.378,0.670,0.631,��,7.5,�L
2021/01/27,04:40,0.667,0.942,0.605,1.196,0.838,0.379,0.669,0.630,��,7.1,�L
2021/01/27,04:50,0.667,0.940,0.606,1.197,0.839,0.381,0.669,0.630,��,7.3,�L
2021/01/27,05:00,0.663,0.940,0.603,1.194,0.837,0.379,0.669,0.629,��,7.5,�L
2021/01/27,05:10,0.665,0.941,0.605,1.193,0.836,0.380,0.668,0.629,��,6.2,�L
2021/01/27,05:20,0.665,0.940,0.603,1.194,0.835,0.378,0.667,0.629,��,5.8,�L
2021/01/27,05:30,0.664,0.940,0.604,1.193,0.833,0.379,0.667,0.628,��,5.5,�L
2021/01/27,05:40,0.664,0.939,0.604,1.194,0.837,0.380,0.665,0.627,��,5.2,�L
2021/01/27,05:50,0.664,0.937,0.602,1.192,0.836,0.378,0.669,0.629,��쐼,3.8,�L
2021/01/27,06:00,0.665,0.939,0.605,1.192,0.835,0.378,0.666,0.628,��쐼,3.0,�L
2021/01/27,06:10,0.663,0.938,0.603,1.192,0.835,0.379,0.666,0.630,��쐼,2.8,�L
2021/01/27,06:20,0.663,0.941,0.602,1.192,0.834,0.380,0.665,0.629,���쐼,0.9,�L
2021/01/27,06:30,0.665,0.939,0.604,1.194,0.836,0.378,0.668,0.630,�k��,1.5,�L
2021/01/27,06:40,0.664,0.941,0.604,1.193,0.833,0.379,0.669,0.628,���k��,2.0,�L
2021/01/27,06:50,0.665,0.937,0.602,1.194,0.837,0.379,0.667,0.631,�k��,4.0,�L
2021/01/27,07:00,0.664,0.939,0.603,1.192,0.835,0.379,0.668,0.628,�k��,2.3,�L
2021/01/27,07:10,0.663,0.938,0.604,1.189,0.836,0.379,0.667,0.627,�k��,1.5,�L
2021/01/27,07:20,0.663,0.938,0.604,1.195,0.835,0.379,0.668,0.629,�k�k��,1.7,�L
2021/01/27,07:30,0.666,0.937,0.602,1.193,0.834,0.377,0.668,0.629,���k��,1.2,��
2021/01/27,07:40,0.664,0.939,0.602,1.193,0.835,0.378,0.667,0.630,��쐼,2.8,��
2021/01/27,07:50,0.663,0.936,0.604,1.191,0.834,0.379,0.667,0.629,�쐼,2.6,��
2021/01/27,08:00,0.663,0.938,0.603,1.192,0.836,0.379,0.668,0.629,���쐼,4.3,��
2021/01/27,08:10,0.665,0.940,0.603,1.192,0.835,0.377,0.668,0.629,���쐼,4.8,��
2021/01/27,08:20,0.663,0.938,0.602,1.193,0.835,0.378,0.669,0.630,��,4.8,��
2021/01/27,08:30,0.663,0.935,0.603,1.194,0.834,0.377,0.668,0.628,��,7.0,��
2021/01/27,08:40,0.662,0.939,0.604,1.192,0.835,0.378,0.667,0.631,���쐼,5.9,��
2021/01/27,08:50,0.664,0.936,0.600,1.191,0.836,0.378,0.667,0.630,���k��,2.6,��
2021/01/27,09:00,0.664,0.938,0.604,1.193,0.835,0.378,0.667,0.628,�k��,1.1,��
2021/01/27,09:10,0.664,0.935,0.604,1.191,0.835,0.378,0.667,0.629,�k�k��,1.2,��
2021/01/27,09:20,0.664,0.937,0.603,1.190,0.836,0.378,0.667,0.629,���k��,2.6,��
2021/01/27,09:30,0.665,0.934,0.604,1.193,0.836,0.378,0.667,0.629,��,6.0,��
2021/01/27,09:40,0.664,0.935,0.603,1.192,0.836,0.378,0.669,0.629,��,6.1,��
2021/01/27,09:50,0.666,0.938,0.603,1.194,0.838,0.380,0.666,0.631,���k��,8.0,��
2021/01/27,10:00,0.666,0.937,0.605,1.190,0.837,0.378,0.668,0.629,���k��,8.6,��
2021/01/27,10:10,0.665,0.936,0.605,1.196,0.837,0.378,0.667,0.631,�k��,10.2,��
2021/01/27,10:20,0.663,0.936,0.604,1.193,0.836,0.379,0.666,0.631,���k��,10.6,��
2021/01/27,10:30,0.664,0.937,0.604,1.193,0.837,0.379,0.669,0.629,���k��,8.3,��
2021/01/27,10:40,0.667,0.936,0.605,1.195,0.836,0.378,0.669,0.631,���k��,7.6,��
2021/01/27,10:50,0.664,0.938,0.605,1.195,0.839,0.378,0.667,0.629,���k��,7.7,��
2021/01/27,11:00,0.665,0.938,0.606,1.195,0.836,0.379,0.667,0.631,���k��,8.7,��
2021/01/27,11:10,0.668,0.938,0.604,1.195,0.838,0.380,0.667,0.630,���k��,8.3,��
2021/01/27,11:20,0.667,0.939,0.606,1.195,0.841,0.378,0.668,0.630,���k��,6.8,��
2021/01/27,11:30,0.668,0.938,0.606,1.195,0.838,0.379,0.668,0.630,��,5.3,��
2021/01/27,11:40,0.668,0.941,0.607,1.194,0.839,0.378,0.669,0.629,���k��,8.6,��
2021/01/27,11:50,0.667,0.939,0.608,1.197,0.839,0.378,0.670,0.630,���k��,6.3,��
2021/01/27,12:00,0.670,0.944,0.607,1.198,0.837,0.378,0.668,0.630,���k��,6.0,��
2021/01/27,12:10,0.668,0.943,0.607,1.198,0.839,0.377,0.669,0.629,���k��,6.1,��
2021/01/27,12:20,0.668,0.942,0.606,1.199,0.836,0.377,0.670,0.629,�k��,9.4,��
2021/01/27,12:30,0.665,0.942,0.606,1.199,0.837,0.378,0.669,0.628,�k��,7.8,��
2021/01/27,12:40,0.664,0.942,0.606,1.199,0.837,0.379,0.671,0.629,�k��,4.4,��
2021/01/27,12:50,0.666,0.941,0.606,1.198,0.838,0.379,0.671,0.629,�k��,9.0,��
2021/01/27,13:00,0.667,0.940,0.606,1.198,0.838,0.379,0.669,0.628,�k��,6.4,��
2021/01/27,13:10,0.666,0.938,0.607,1.199,0.839,0.379,0.672,0.628,�k�k��,8.2,��
2021/01/27,13:20,0.668,0.938,0.606,1.197,0.839,0.379,0.671,0.630,�k�k��,7.0,��
2021/01/27,13:30,0.665,0.939,0.607,1.199,0.838,0.379,0.669,0.628,�k�k��,11.1,��
2021/01/27,13:40,0.666,0.941,0.605,1.198,0.839,0.378,0.670,0.629,�k��,10.7,��
2021/01/27,13:50,0.665,0.940,0.608,1.201,0.838,0.377,0.669,0.628,���k��,7.6,��
2021/01/27,14:00,0.666,0.939,0.609,1.199,0.839,0.378,0.668,0.628,�k��,11.7,��
2021/01/27,14:10,0.666,0.942,0.607,1.201,0.838,0.379,0.670,0.630,�k�k��,5.3,��
2021/01/27,14:20,0.667,0.942,0.611,1.201,0.840,0.380,0.668,0.629,�k��,5.0,��
2021/01/27,14:30,0.667,0.943,0.609,1.202,0.841,0.380,0.670,0.629,�k��,6.7,��
2021/01/27,14:40,0.669,0.944,0.609,1.199,0.840,0.380,0.670,0.630,�k��,6.1,��
2021/01/27,14:50,0.666,0.944,0.609,1.199,0.843,0.380,0.670,0.629,�k��,9.9,��
2021/01/27,15:00,0.667,0.944,0.609,1.198,0.839,0.380,0.670,0.630,�k��,9.6,��
2021/01/27,15:10,0.668,0.946,0.607,1.200,0.843,0.379,0.668,0.629,�k��,8.0,��
2021/01/27,15:20,0.668,0.946,0.608,1.201,0.840,0.380,0.668,0.630,�k��,7.6,��
2021/01/27,15:30,0.664,0.948,0.609,1.203,0.840,0.380,0.671,0.631,�k��,8.7,��
2021/01/27,15:40,0.666,0.948,0.607,1.200,0.845,0.379,0.669,0.631,�k��,9.3,��
2021/01/27,15:50,0.667,0.945,0.608,1.203,0.844,0.379,0.670,0.631,�k��,8.6,��
2021/01/27,16:00,0.667,0.947,0.608,1.202,0.844,0.379,0.669,0.631,�k��,6.4,��
2021/01/27,16:10,0.666,0.946,0.608,1.200,0.845,0.379,0.667,0.631,�k��,7.9,��
2021/01/27,16:20,0.668,0.951,0.609,1.201,0.845,0.380,0.669,0.633,�k��,6.4,��
2021/01/27,16:30,0.669,0.952,0.609,1.199,0.844,0.379,0.668,0.633,�k��,6.2,��
2021/01/27,16:40,0.667,0.951,0.609,1.201,0.843,0.378,0.669,0.631,�k��,6.2,��
2021/01/27,16:50,0.669,0.950,0.608,1.200,0.845,0.379,0.669,0.631,�k��,7.5,��
2021/01/27,17:00,0.666,0.949,0.607,1.200,0.843,0.379,0.671,0.631,�k��,7.9,��
2021/01/27,17:10,0.665,0.952,0.609,1.201,0.844,0.378,0.669,0.632,�k��,5.9,��
2021/01/27,17:20,0.667,0.951,0.606,1.204,0.844,0.379,0.667,0.630,�k��,7.6,��
2021/01/27,17:30,0.667,0.950,0.609,1.202,0.845,0.379,0.669,0.631,�k��,8.3,��
2021/01/27,17:40,0.666,0.951,0.607,1.202,0.843,0.379,0.670,0.630,�k��,8.6,��
2021/01/27,17:50,0.667,0.950,0.605,1.201,0.843,0.379,0.669,0.631,�k��,7.4,��
2021/01/27,18:00,0.667,0.948,0.608,1.201,0.842,0.378,0.672,0.631,�k��,5.9,��
2021/01/27,18:10,0.667,0.950,0.608,1.205,0.841,0.378,0.669,0.630,�k��,5.8,��
2021/01/27,18:20,0.667,0.950,0.607,1.201,0.846,0.380,0.668,0.631,�k��,6.2,��
2021/01/27,18:30,0.665,0.949,0.607,1.204,0.845,0.377,0.671,0.632,�k��,7.0,��
2021/01/27,18:40,0.669,0.949,0.607,1.204,0.844,0.377,0.671,0.631,�k��,7.5,��
2021/01/27,18:50,0.664,0.951,0.608,1.201,0.844,0.377,0.671,0.631,���k��,7.1,��
2021/01/27,19:00,0.667,0.949,0.607,1.203,0.844,0.378,0.668,0.630,�k��,5.9,��
2021/01/27,19:10,0.666,0.950,0.607,1.202,0.843,0.378,0.670,0.630,�k��,5.8,��
2021/01/27,19:20,0.665,0.950,0.607,1.199,0.842,0.376,0.672,0.631,���k��,5.9,��
2021/01/27,19:30,0.665,0.951,0.607,1.202,0.843,0.378,0.669,0.631,�k��,5.7,��
2021/01/27,19:40,0.666,0.951,0.608,1.201,0.844,0.377,0.670,0.631,�k��,5.3,��
2021/01/27,19:50,0.665,0.946,0.606,1.202,0.844,0.377,0.670,0.631,�k��,4.3,��
2021/01/27,20:00,0.664,0.949,0.607,1.200,0.842,0.377,0.670,0.630,���k��,5.0,��
2021/01/27,20:10,0.665,0.950,0.608,1.202,0.844,0.378,0.669,0.630,���k��,6.5,��
2021/01/27,20:20,0.666,0.948,0.605,1.200,0.843,0.377,0.668,0.631,���k��,7.7,��
2021/01/27,20:30,0.666,0.947,0.607,1.203,0.842,0.379,0.670,0.629,���k��,7.5,��
2021/01/27,20:40,0.666,0.950,0.607,1.202,0.843,0.378,0.669,0.631,���k��,6.3,��
2021/01/27,20:50,0.666,0.947,0.606,1.200,0.843,0.376,0.669,0.630,���k��,5.4,��
2021/01/27,21:00,0.664,0.949,0.607,1.200,0.842,0.378,0.670,0.630,���k��,6.4,��
2021/01/27,21:10,0.664,0.951,0.608,1.199,0.841,0.378,0.670,0.629,���k��,5.8,��
2021/01/27,21:20,0.665,0.947,0.605,1.201,0.844,0.377,0.670,0.630,���k��,5.8,��
2021/01/27,21:30,0.667,0.949,0.607,1.201,0.843,0.377,0.670,0.632,���k��,5.4,��
2021/01/27,21:40,0.665,0.949,0.606,1.200,0.844,0.378,0.670,0.630,���k��,6.9,��
2021/01/27,21:50,0.666,0.949,0.606,1.202,0.843,0.377,0.669,0.630,���k��,7.0,��
2021/01/27,22:00,0.664,0.947,0.605,1.201,0.843,0.377,0.668,0.630,���k��,6.5,��
2021/01/27,22:10,0.664,0.949,0.604,1.199,0.844,0.377,0.669,0.631,���k��,6.8,��
2021/01/27,22:20,0.665,0.947,0.606,1.201,0.844,0.377,0.669,0.631,�k��,6.4,��
2021/01/27,22:30,0.663,0.948,0.606,1.200,0.844,0.378,0.668,0.631,�k��,5.3,��
2021/01/27,22:40,0.663,0.949,0.608,1.201,0.842,0.376,0.670,0.630,�k��,4.5,��
2021/01/27,22:50,0.665,0.949,0.605,1.202,0.843,0.377,0.668,0.629,�k��,4.2,��
2021/01/27,23:00,0.664,0.949,0.604,1.199,0.843,0.378,0.667,0.631,�k��,5.3,��
2021/01/27,23:10,0.662,0.950,0.605,1.202,0.842,0.378,0.668,0.631,�k�k��,5.3,��
2021/01/27,23:20,0.665,0.949,0.605,1.202,0.841,0.376,0.668,0.630,�k�k��,5.4,��
2021/01/27,23:30,0.664,0.949,0.607,1.201,0.843,0.377,0.669,0.630,�k��,6.3,��
2021/01/27,23:40,0.663,0.946,0.604,1.202,0.842,0.377,0.667,0.631,�k��,6.8,��
2021/01/27,23:50,0.665,0.947,0.605,1.202,0.842,0.378,0.669,0.630,�k��,8.1,��
